When you browse on this site, cookies collect data to enhance your experience and personalize the content and advertising you see.
Visit our Privacy Policy to learn more. By continuing to use the site, you agree to this use of cookies and data.
  • In United Kingdom
  • List of Countries
  • For 7 days
  • Water Temperature
  • Satellite Maps
  • Weather Map
  • Weather Widgets
  • user-avatar
    Login

    Hourly Weather Muyinga

    Today, 24 January, Thursday

    Time Temperature Precipitation Wind Pressure Humidity
    00:00 +18°C° 0.1 mm 1 mps 629 mmHg 92%
    01:00 +18°C° 0.1 mm 1 mps 629 mmHg 92%
    02:00 +16°C° 0 mm 0 mps 628 mmHg 93%
    03:00 +16°C° 0 mm 0 mps 628 mmHg 93%
    04:00 +15°C° 0 mm 0 mps 628 mmHg 93%
    05:00 +15°C° 0 mm 0 mps 628 mmHg 94%
    06:00 +17°C° 0.2 mm 0 mps 629 mmHg 90%
    07:00 +18°C° 0.2 mm 0 mps 629 mmHg 86%
    08:00 +19°C° 0.2 mm 0 mps 630 mmHg 82%
    09:00 +21°C° 1 mm 0 mps 630 mmHg 76%
    10:00 +25°C° 1 mm 1 mps 630 mmHg 70%
    11:00 +26°C° 1 mm 1 mps 631 mmHg 63%
    12:00 +27°C° 0.3 mm 1 mps 630 mmHg 59%
    13:00 +27°C° 0.3 mm 2 mps 630 mmHg 55%
    14:00 +28°C° 0.3 mm 2 mps 630 mmHg 51%
    15:00 +27°C° 0.4 mm 2 mps 629 mmHg 58%
    16:00 +26°C° 0.4 mm 2 mps 628 mmHg 65%
    17:00 +24°C° 0.4 mm 2 mps 628 mmHg 72%
    18:00 +23°C° 0.7 mm 2 mps 628 mmHg 77%
    19:00 +21°C° 0.7 mm 1 mps 628 mmHg 82%
    20:00 +19°C° 0.7 mm 1 mps 628 mmHg 87%
    21:00 +19°C° 0.4 mm 1 mps 628 mmHg 88%
    22:00 +19°C° 0.4 mm 1 mps 628 mmHg 90%
    23:00 +18°C° 0.4 mm 1 mps 628 mmHg 92%

    Tomorrow, 25 January, Friday

    Time Temperature Precipitation Wind Pressure Humidity
    00:00 +18°C° 0.2 mm 1 mps 628 mmHg 92%
    01:00 +18°C° 0.2 mm 1 mps 628 mmHg 93%
    02:00 +15°C° 0.2 mm 0 mps 627 mmHg 93%
    03:00 +15°C° 0 mm 0 mps 627 mmHg 94%
    04:00 +16°C° 0 mm 1 mps 627 mmHg 94%
    05:00 +16°C° 0 mm 1 mps 627 mmHg 94%
    06:00 +18°C° 0 mm 1 mps 628 mmHg 92%
    07:00 +17°C° 0 mm 0 mps 629 mmHg 90%
    08:00 +18°C° 0 mm 0 mps 630 mmHg 87%
    09:00 +20°C° 0.3 mm 0 mps 630 mmHg 78%
    10:00 +23°C° 0.3 mm 0 mps 631 mmHg 68%
    11:00 +26°C° 0.3 mm 0 mps 632 mmHg 59%
    12:00 +27°C° 0.1 mm 1 mps 631 mmHg 57%
    13:00 +27°C° 0.1 mm 1 mps 630 mmHg 55%
    14:00 +27°C° 0.1 mm 2 mps 629 mmHg 53%
    15:00 +26°C° 0.4 mm 2 mps 629 mmHg 59%
    16:00 +26°C° 0.4 mm 2 mps 628 mmHg 65%
    17:00 +25°C° 0.4 mm 2 mps 628 mmHg 71%
    18:00 +23°C° 0.2 mm 2 mps 628 mmHg 76%
    19:00 +21°C° 0.2 mm 1 mps 628 mmHg 82%
    20:00 +19°C° 0.2 mm 1 mps 628 mmHg 88%
    21:00 +18°C° 0.5 mm 1 mps 628 mmHg 90%
    22:00 +18°C° 0.5 mm 1 mps 628 mmHg 92%
    23:00 +16°C° 0.5 mm 1 mps 629 mmHg 93%

    Day after tomorrow, 26 January, Saturday

    Time Temperature Precipitation Wind Pressure Humidity
    00:00 +16°C° 0.1 mm 1 mps 628 mmHg 94%
    01:00 +16°C° 0.1 mm 1 mps 628 mmHg 94%
    02:00 +16°C° 0.1 mm 1 mps 628 mmHg 94%
    03:00 +15°C° 0 mm 1 mps 627 mmHg 94%
    04:00 +14°C° 0 mm 0 mps 627 mmHg 94%
    05:00 +14°C° 0 mm 0 mps 627 mmHg 94%
    06:00 +15°C° 0 mm 0 mps 628 mmHg 92%
    07:00 +16°C° 0 mm 0 mps 629 mmHg 90%
    08:00 +18°C° 0 mm 1 mps 629 mmHg 88%
    09:00 +21°C° 0.3 mm 1 mps 630 mmHg 78%
    10:00 +24°C° 0.3 mm 1 mps 631 mmHg 69%
    11:00 +26°C° 0.3 mm 2 mps 631 mmHg 59%
    12:00 +27°C° 0.5 mm 2 mps 631 mmHg 57%
    13:00 +27°C° 0.5 mm 2 mps 630 mmHg 54%
    14:00 +28°C° 0.5 mm 2 mps 630 mmHg 52%
    15:00 +27°C° 0.2 mm 2 mps 629 mmHg 56%
    16:00 +27°C° 0.2 mm 2 mps 629 mmHg 60%
    17:00 +26°C° 0.2 mm 2 mps 628 mmHg 64%
    18:00 +24°C° 0.5 mm 1 mps 628 mmHg 72%
    19:00 +21°C° 0.5 mm 1 mps 628 mmHg 79%
    20:00 +19°C° 0.5 mm 1 mps 628 mmHg 86%
    21:00 +19°C° 0.5 mm 1 mps 628 mmHg 88%
    22:00 +18°C° 0.5 mm 1 mps 628 mmHg 90%
    23:00 +18°C° 0.5 mm 1 mps 628 mmHg 92%

    27 January, Sunday

    Time Temperature Precipitation Wind Pressure Humidity
    00:00 +16°C° 0 mm 1 mps 628 mmHg 92%
    01:00 +16°C° 0 mm 1 mps 627 mmHg 93%
    02:00 +16°C° 0 mm 1 mps 627 mmHg 94%
    03:00 +15°C° 0 mm 1 mps 627 mmHg 94%
    04:00 +15°C° 0 mm 1 mps 627 mmHg 94%
    05:00 +15°C° 0 mm 1 mps 627 mmHg 94%
    06:00 +18°C° 0 mm 1 mps 628 mmHg 89%
    07:00 +19°C° 0 mm 1 mps 629 mmHg 84%
    08:00 +19°C° 0 mm 0 mps 630 mmHg 80%
    09:00 +23°C° 0.1 mm 1 mps 630 mmHg 72%
    10:00 +25°C° 0.1 mm 1 mps 631 mmHg 64%
    11:00 +27°C° 0.1 mm 1 mps 631 mmHg 57%
    12:00 +28°C° 0.1 mm 2 mps 630 mmHg 53%
    13:00 +29°C° 0.1 mm 2 mps 630 mmHg 49%
    14:00 +29°C° 0.1 mm 2 mps 629 mmHg 44%
    15:00 +29°C° 0 mm 2 mps 629 mmHg 49%
    16:00 +28°C° 0 mm 2 mps 628 mmHg 53%
    17:00 +27°C° 0 mm 2 mps 628 mmHg 57%
    18:00 +25°C° 0 mm 2 mps 628 mmHg 63%
    19:00 +23°C° 0 mm 1 mps 628 mmHg 70%
    20:00 +20°C° 0 mm 1 mps 628 mmHg 76%
    21:00 +20°C° 0.8 mm 1 mps 628 mmHg 82%
    22:00 +19°C° 0.8 mm 1 mps 628 mmHg 87%
    23:00 +18°C° 0.8 mm 1 mps 628 mmHg 93%

    28 January, Monday

    Time Temperature Precipitation Wind Pressure Humidity
    00:00 +18°C° 0 mm 1 mps 627 mmHg 93%
    01:00 +16°C° 0 mm 1 mps 627 mmHg 94%
    02:00 +16°C° 0 mm 1 mps 627 mmHg 94%
    03:00 +16°C° 0 mm 1 mps 627 mmHg 94%
    04:00 +15°C° 0 mm 0 mps 627 mmHg 94%
    05:00 +14°C° 0 mm 0 mps 627 mmHg 93%
    06:00 +16°C° 0.1 mm 0 mps 628 mmHg 89%
    07:00 +17°C° 0.1 mm 0 mps 629 mmHg 84%
    08:00 +19°C° 0.1 mm 0 mps 630 mmHg 79%
    09:00 +22°C° 0.9 mm 1 mps 630 mmHg 74%
    10:00 +24°C° 0.9 mm 1 mps 631 mmHg 70%
    11:00 +25°C° 0.9 mm 1 mps 631 mmHg 66%
    12:00 +25°C° 1.9 mm 1 mps 630 mmHg 69%
    13:00 +25°C° 1.9 mm 1 mps 629 mmHg 72%
    14:00 +24°C° 1.9 mm 2 mps 628 mmHg 74%
    15:00 +24°C° 1.3 mm 1 mps 628 mmHg 77%
    16:00 +23°C° 1.3 mm 1 mps 627 mmHg 79%
    17:00 +23°C° 1.3 mm 1 mps 627 mmHg 81%
    18:00 +22°C° 0 mm 1 mps 627 mmHg 83%
    19:00 +20°C° 0 mm 1 mps 628 mmHg 86%
    20:00 +19°C° 0 mm 1 mps 628 mmHg 88%
    21:00 +18°C° 0 mm 1 mps 628 mmHg 89%
    22:00 +18°C° 0 mm 1 mps 628 mmHg 90%
    23:00 +18°C° 0 mm 1 mps 628 mmHg 91%

    29 January, Tuesday

    Time Temperature Precipitation Wind Pressure Humidity
    00:00 +16°C° 0 mm 1 mps 627 mmHg 92%
    01:00 +16°C° 0 mm 1 mps 627 mmHg 92%
    02:00 +16°C° 0 mm 1 mps 626 mmHg 93%
    03:00 +15°C° 0 mm 1 mps 626 mmHg 93%
    04:00 +15°C° 0 mm 1 mps 627 mmHg 93%
    05:00 +15°C° 0 mm 1 mps 627 mmHg 93%
    06:00 +16°C° 0 mm 0 mps 628 mmHg 89%
    07:00 +17°C° 0 mm 0 mps 629 mmHg 84%
    08:00 +19°C° 0 mm 0 mps 630 mmHg 80%
    09:00 +21°C° 0.6 mm 0 mps 630 mmHg 75%
    10:00 +24°C° 0.6 mm 1 mps 630 mmHg 70%
    11:00 +26°C° 0.6 mm 1 mps 630 mmHg 65%
    12:00 +27°C° 0.3 mm 1 mps 630 mmHg 59%
    13:00 +27°C° 0.3 mm 1 mps 629 mmHg 54%
    14:00 +28°C° 0.3 mm 2 mps 629 mmHg 49%
    15:00 +28°C° 0 mm 2 mps 628 mmHg 52%
    16:00 +27°C° 0 mm 2 mps 628 mmHg 55%
    17:00 +27°C° 0 mm 2 mps 628 mmHg 59%
    18:00 +24°C° 0 mm 1 mps 628 mmHg 65%
    19:00 +22°C° 0 mm 1 mps 628 mmHg 70%
    20:00 +20°C° 0 mm 1 mps 628 mmHg 76%
    21:00 +19°C° 0 mm 1 mps 628 mmHg 79%
    22:00 +19°C° 0 mm 1 mps 628 mmHg 82%
    23:00 +18°C° 0 mm 1 mps 628 mmHg 85%
    Show more